[[{"header":{"parameterUnit":"m.s-1","parameterCategory":1,"la1":30.2991,"la2":30.254,"lo1":-89.0895,"lo2":-89.0444,"dy":0.0017,"dx":0.0017,"nx":28,"ny":28,"refTime":"2025-07-16T09:00:00:Z","depth":0,"parameterNumber":2,"parameterNumberName":"U-component_of_WINDS"},"data":[0,0,0,0,0,0,0,0,0,0,0,0,0,0,0,0,0,0,0,0,0,0,0,0,0,0,0,0,0,0,0,0,0,0,0,0,0,0,0,0,0,0,0,0,0,0,0,0,0,0,0,0,0,0,0,0,0,0,1.8757,1.8757,0,1.8771,1.8771,1.8772,1.8717,1.8715,1.8713,1.8712,1.8727,1.8729,1.8731,0,0,0,0,0,0,0,0,0,0,0,0,0,1.8681,1.8682,1.8757,1.8757,1.8757,1.8771,1.8771,1.8772,1.8717,1.8715,1.8713,1.8711,1.8727,1.8729,1.8731,0,0,0,0,0,0,0,0,0,0,0,0,0,1.8706,1.8683,1.8757,1.8732,1.873,1.8771,1.8771,1.8772,1.8717,1.8715,1.8712,1.871,1.8726,1.8729,1.8731,1.8798,0,0,1.874,1.8742,0,0,0,0,0,0,0,0,1.8705,1.8709,1.8735,1.8734,1.8731,1.874,1.875,1.8781,1.8718,1.8722,1.8712,1.8709,1.8733,1.8735,1.8744,1.8799,1.88,1.8741,1.8742,1.8744,1.8744,0,0,0,0,0,0,0,1.8703,1.8708,1.8763,1.8736,1.8733,1.8719,1.872,1.8756,1.8741,1.8722,1.8718,1.872,1.8732,1.8741,1.8743,1.88,1.874,1.8743,1.8745,1.8746,1.8906,1.8909,0,0,0,0,0,0,1.8705,1.8707,1.8762,1.8763,1.8712,1.8722,1.8723,1.8739,1.8741,1.8739,1.8722,1.8717,1.8737,1.874,1.8744,1.8819,1.8744,1.8746,1.8748,1.8904,1.8907,1.8909,0,0,0,0,0,0,1.8703,1.871,1.8762,1.8734,1.8739,1.8726,1.8745,1.8741,1.875,1.8741,1.8738,1.8734,1.8735,1.874,1.8784,1.8819,1.8748,1.875,1.8901,1.8905,1.8908,1.8972,0,0,0,0,0,0,1.8701,1.871,1.8736,1.8735,1.8741,1.8803,1.8747,1.8743,1.8755,1.8749,1.8752,1.875,1.8734,1.878,1.8787,1.8821,1.8752,1.8898,1.8902,1.8907,1.8966,1.8977,1.8986,0,0,0,0,0,1.8699,1.8755,1.8738,1.8745,1.8773,1.8805,1.8808,1.8788,1.8758,1.8783,1.8777,1.875,1.8814,1.8785,1.8792,1.8828,1.8895,1.8901,1.8907,1.8962,1.8975,1.8986,0,0,0,0,0,0,1.8762,1.8754,1.8735,1.8793,1.8799,1.8795,1.8827,1.8804,1.882,1.8814,1.8789,1.879,1.8837,1.8838,1.8805,1.8891,1.8849,1.8857,1.8889,1.8901,1.8911,1.8909,1.8755,0,0,0,0,0,1.8782,1.8808,1.88,1.8851,1.8856,1.8841,1.8854,1.8838,1.8844,1.8847,1.8844,1.8851,1.8872,1.8887,1.8907,1.8966,1.8964,1.8994,1.9004,1.9013,1.9019,1.9047,1.9059,1.8928,1.8928,1.8928,0,0,1.8825,1.8824,1.8842,1.8864,1.8867,1.8894,1.8844,1.8875,1.8894,1.8852,1.8892,1.889,1.8896,1.8947,1.897,1.8949,1.9054,1.902,1.9027,1.9028,1.9054,1.9066,1.9077,1.8932,1.8931,1.8931,0,0,1.8915,1.8919,1.8959,1.8963,1.8968,1.8957,1.8967,1.8966,1.8962,1.9002,1.897,1.8992,1.9031,1.9035,1.9042,1.913,1.9104,1.9137,1.9189,1.9216,1.9227,1.9236,1.9264,1.9275,1.9144,1.9144,1.9144,0,1.8968,1.9006,1.8984,1.9015,1.9025,1.8986,1.9026,1.9031,1.9043,1.9049,1.9026,1.907,1.9072,1.9122,1.9143,1.9151,1.916,1.9137,1.9227,1.9236,1.9244,1.9271,1.9282,1.9148,1.9147,1.9147,1.9147,0,1.9069,1.9096,1.9128,1.9138,1.9151,1.9187,1.9169,1.9184,1.9166,1.9157,1.9197,1.9197,1.9214,1.9225,1.9209,1.9272,1.9258,1.9232,1.9189,1.926,1.9285,1.9295,1.9153,1.9152,1.9151,1.915,0,0,1.9201,1.9195,1.9207,1.9209,1.921,1.923,1.9264,1.9279,1.9292,1.9301,1.9326,1.9358,1.9331,1.934,1.9323,1.9348,1.9413,1.9317,1.9317,1.9333,1.9478,1.9497,1.9509,1.9396,1.9398,1.94,1.9477,0,1.9287,1.9343,1.9321,1.9378,1.9401,1.9363,1.9391,1.9394,1.9386,1.9404,1.9395,1.9417,1.9382,1.9386,1.9409,1.9401,1.9442,1.9395,1.9418,1.9419,1.9416,1.9523,1.9543,1.9616,1.9487,1.9488,1.949,0,1.9396,1.9406,1.9465,1.9458,1.9467,1.9493,1.9503,1.9521,1.9523,1.9515,1.9522,1.9499,1.953,1.9488,1.9528,1.9497,1.9505,1.9502,1.9504,1.9504,1.9458,1.9523,1.9639,1.9649,1.9505,1.9504,1.9503,0,1.9482,1.9511,1.9549,1.9552,1.9546,1.9565,1.9563,1.9562,1.9572,1.9581,1.9586,1.96,1.9606,1.9617,1.9597,1.9569,1.9639,1.9596,1.9631,1.9632,1.9647,1.9646,1.9763,1.9656,1.9656,1.9656,1.9655,0,1.9579,1.9616,1.9587,1.961,1.9649,1.9623,1.9662,1.9656,1.9655,1.9676,1.9645,1.9664,1.9638,1.9655,1.964,1.9674,1.9678,1.9671,1.9666,1.9673,1.9673,1.9677,1.967,1.9658,1.9658,1.9657,1.9657,0,1.9682,1.9665,1.9702,1.9692,1.9691,1.9719,1.971,1.9731,1.9719,1.9745,1.975,1.9732,1.975,1.9731,1.9749,1.9738,1.9782,1.9772,1.9782,1.9778,1.9813,1.9809,1.9935,1.9949,1.9835,1.9836,1.9837,0,1.9745,1.9771,1.9763,1.9774,1.9773,1.9792,1.98,1.9775,1.9785,1.9787,1.9806,1.9821,1.9831,1.9861,1.985,1.9862,1.9849,1.9892,1.9851,1.9855,1.9846,1.9844,1.9845,1.9901,1.9902,1.9903,1.9904,0,1.9856,1.9845,1.9858,1.9867,1.9878,1.9884,1.9888,1.9899,1.9872,1.9885,1.9902,1.991,1.9925,1.9939,1.9947,1.9945,1.9919,1.9917,1.9925,1.9931,1.9935,1.993,1.9802,1.9914,1.9913,1.9912,1.9912,1.9911,1.9939,1.9959,1.9955,1.997,1.997,1.9973,1.999,1.998,1.9993,2.0003,1.9988,2.0008,2.0006,2.0013,2.0014,2.0028,2.001,2.0023,2.0025,2.0028,2.0032,1.9934,2.003,2.003,2.0029,2.0029,2.0029,0,2.0046,2.0041,2.0055,2.0059,2.007,2.0044,2.0047,2.0057,2.0075,2.0075,2.0084,2.0102,2.0115,2.0103,2.0113,2.0127,2.0115,2.013,2.0128,2.0127,2.005,2.004,2.0139,2.0139,2.0139,2.0139,2.0139,2.0139,2.0103,2.0135,2.0123,2.0153,2.0148,2.0166,2.0169,2.0171,2.017,2.0191,2.02,2.0192,2.0187,2.0196,2.0205,2.0201,2.0206,2.0224,2.0216,2.0144,2.0133,2.0123,2.0113,2.0226,2.0226,2.0292,2.0292,2.0293]},{"header":{"parameterUnit":"m.s-1","parameterCategory":1,"la1":30.2991,"la2":30.254,"lo1":-89.0895,"lo2":-89.0444,"dy":0.0017,"dx":0.0017,"nx":28,"ny":28,"refTime":"2025-07-16T09:00:00:Z","depth":0,"parameterNumber":3,"parameterNumberName":"V-component_of_WINDS"},"data":[0,0,0,0,0,0,0,0,0,0,0,0,0,0,0,0,0,0,0,0,0,0,0,0,0,0,0,0,0,0,0,0,0,0,0,0,0,0,0,0,0,0,0,0,0,0,0,0,0,0,0,0,0,0,0,0,0,0,4.6684,4.6685,0,4.6804,4.6805,4.6806,4.6763,4.6761,4.6758,4.6756,4.6872,4.6877,4.6882,0,0,0,0,0,0,0,0,0,0,0,0,0,4.641,4.6416,4.6684,4.6686,4.6687,4.6803,4.6805,4.6807,4.6764,4.6761,4.6757,4.6754,4.687,4.6876,4.6883,0,0,0,0,0,0,0,0,0,0,0,0,0,4.6529,4.6417,4.6684,4.668,4.6681,4.6803,4.6805,4.6807,4.6765,4.6761,4.6757,4.6753,4.6868,4.6876,4.6884,4.7015,0,0,4.6909,4.6913,0,0,0,0,0,0,0,0,4.6523,4.654,4.6679,4.668,4.6682,4.6765,4.6751,4.6877,4.6766,4.6733,4.6755,4.6751,4.6839,4.6849,4.688,4.7021,4.7026,4.691,4.6915,4.6919,4.6921,0,0,0,0,0,0,0,4.6515,4.6534,4.6731,4.6681,4.6683,4.6669,4.6682,4.6775,4.6806,4.6735,4.6732,4.6747,4.6839,4.6872,4.6883,4.7027,4.691,4.6917,4.6923,4.6926,4.7278,4.7282,0,0,0,0,0,0,4.6507,4.6528,4.6727,4.6735,4.6591,4.6678,4.6692,4.6742,4.6805,4.6811,4.6751,4.6745,4.686,4.6873,4.6887,4.7043,4.6919,4.6927,4.6931,4.7274,4.7279,4.7284,0,0,0,0,0,0,4.6501,4.6525,4.6722,4.6631,4.6655,4.6687,4.6743,4.6746,4.678,4.6817,4.6822,4.678,4.6857,4.6875,4.6983,4.7046,4.693,4.6938,4.7269,4.7276,4.7282,4.7357,0,0,0,0,0,0,4.6493,4.6523,4.6576,4.6632,4.666,4.682,4.6747,4.6752,4.6795,4.6789,4.6846,4.6851,4.6856,4.6971,4.6992,4.7056,4.6944,4.7263,4.7272,4.7279,4.7349,4.7365,4.7379,0,0,0,0,0,4.6484,4.6591,4.6579,4.6603,4.6726,4.6824,4.6839,4.6844,4.6801,4.6852,4.6875,4.6849,4.7036,4.6983,4.7005,4.7073,4.7259,4.7269,4.7279,4.7342,4.7362,4.7379,0,0,0,0,0,0,4.654,4.6599,4.6585,4.6715,4.6765,4.6816,4.6882,4.6865,4.6927,4.6918,4.692,4.6933,4.7044,4.7069,4.7009,4.7201,4.7141,4.7156,4.7181,4.72,4.7215,4.7206,4.6951,0,0,0,0,0,4.6568,4.6644,4.6691,4.68,4.6826,4.685,4.6892,4.6892,4.6943,4.6963,4.6994,4.7043,4.7112,4.7158,4.7224,4.7353,4.7363,4.741,4.7425,4.7437,4.7449,4.7517,4.7537,4.7316,4.7316,4.7316,0,0,4.6625,4.6667,4.6715,4.6813,4.6851,4.6928,4.6868,4.6952,4.7008,4.6975,4.708,4.7104,4.7158,4.7277,4.7331,4.7301,4.7513,4.745,4.7459,4.7465,4.7529,4.755,4.7568,4.7323,4.7321,4.732,0,0,4.6769,4.6809,4.6904,4.6944,4.7004,4.7018,4.7041,4.7095,4.7111,4.7216,4.7192,4.7257,4.7378,4.7416,4.7452,4.7608,4.7585,4.7629,4.7707,4.7773,4.779,4.7806,4.7859,4.7879,4.7641,4.7642,4.7642,0,4.6832,4.6949,4.6954,4.704,4.7082,4.7058,4.7152,4.719,4.7267,4.7296,4.7262,4.7411,4.7445,4.7572,4.761,4.764,4.7663,4.7622,4.7788,4.7803,4.7818,4.7869,4.7889,4.7646,4.7646,4.7645,4.7645,0,4.7023,4.7104,4.7173,4.725,4.73,4.739,4.7405,4.7455,4.7449,4.7466,4.7572,4.7613,4.7685,4.7715,4.771,4.784,4.782,4.7787,4.7726,4.7844,4.7892,4.7911,4.7653,4.7652,4.765,4.7649,0,0,4.7206,4.7284,4.7309,4.7342,4.7406,4.7467,4.7554,4.7627,4.7668,4.7722,4.7793,4.7894,4.7864,4.7904,4.7903,4.796,4.8078,4.792,4.7921,4.7947,4.8221,4.8244,4.8267,4.8064,4.8068,4.8071,4.8216,0,4.7353,4.7509,4.7515,4.7655,4.7728,4.7705,4.778,4.7825,4.7843,4.7906,4.7924,4.7995,4.7951,4.7975,4.8031,4.8052,4.8133,4.8042,4.8127,4.8131,4.8114,4.8293,4.8318,4.8453,4.8235,4.8238,4.824,0,4.7547,4.7608,4.7756,4.7807,4.7837,4.7906,4.7971,4.8032,4.8082,4.809,4.8135,4.8124,4.821,4.8147,4.8263,4.82,4.8235,4.8251,4.8256,4.8263,4.8192,4.8303,4.8497,4.8516,4.827,4.8268,4.8266,0,4.7663,4.7782,4.7885,4.7915,4.7977,4.8025,4.8053,4.8099,4.8141,4.8198,4.8225,4.829,4.8326,4.8375,4.8381,4.8335,4.8497,4.8435,4.8504,4.8504,4.8539,4.8537,4.8739,4.8564,4.8564,4.8563,4.8563,0,4.7826,4.7917,4.7938,4.8002,4.8102,4.8106,4.8205,4.8228,4.8269,4.8334,4.8317,4.8378,4.8384,4.8446,4.8451,4.8545,4.8561,4.8569,4.8569,4.857,4.8569,4.8592,4.8582,4.8569,4.8567,4.8566,4.8565,0,4.7973,4.7991,4.8102,4.8152,4.8166,4.8238,4.8279,4.8338,4.8354,4.8437,4.8456,4.848,4.8552,4.8563,4.8648,4.8651,4.8763,4.8754,4.8747,4.8745,4.8814,4.8807,4.9038,4.9067,4.8874,4.8876,4.8877,0,4.8076,4.8145,4.8203,4.8246,4.8277,4.8347,4.8391,4.8397,4.8442,4.8503,4.8554,4.8624,4.8681,4.8797,4.882,4.8884,4.8875,4.8951,4.8884,4.8882,4.8874,4.8869,4.8875,4.8964,4.8966,4.8968,4.8969,0,4.8255,4.826,4.8325,4.8393,4.8445,4.8498,4.8548,4.8584,4.8596,4.8647,4.8722,4.8766,4.8852,4.8921,4.8984,4.9009,4.8991,4.899,4.9009,4.9011,4.9003,4.9006,4.8781,4.8985,4.8983,4.8982,4.8981,4.8981,4.8382,4.8442,4.8492,4.8563,4.8601,4.8648,4.8706,4.8729,4.8792,4.8863,4.8862,4.8943,4.8988,4.9071,4.91,4.9161,4.9136,4.9165,4.9171,4.9178,4.9184,4.8994,4.9173,4.9172,4.9172,4.9172,4.9171,0,4.8559,4.859,4.8656,4.8727,4.8782,4.8762,4.8815,4.8862,4.8934,4.8979,4.9035,4.9119,4.9186,4.9214,4.9279,4.9322,4.9315,4.9339,4.9335,4.9341,4.9204,4.918,4.9343,4.9343,4.9343,4.9343,4.9343,4.9343,4.8658,4.8758,4.8769,4.8886,4.8915,4.8995,4.9027,4.9069,4.9104,4.92,4.9255,4.9274,4.9311,4.9378,4.9437,4.9443,4.9467,4.9494,4.9497,4.9368,4.935,4.9334,4.9311,4.95,4.95,4.9628,4.9629,4.963]}]]